Montana Department of Transportation

Main Content

Accidents and Incidents Report

Hourly Weather Roundup

ASUS45 KTFX 270804
RWRMT 
MONTANA HOURLY WEATHER ROUNDUP
NATIONAL WEATHER SERVICE GREAT FALLS MT
204 AM MDT FRI MAR 27 2015

NOTE: "FAIR" INDICATES FEW OR NO CLOUDS BELOW 12000 FEET WITH NO
SIGNIFICANT WEATHER AND/OR OBSTRUCTIONS TO VISIBILITY.

* THESE STATIONS ARE NOT UNDER NWS QUALITY CONTROL. THEY DO NOT
   REPORT WEATHER SUCH AS PRECIPITATION OR FOG.

MTZ001.007-043-270900-
WEST OF THE DIVIDE
CITY           SKY/WX    TMP DP  RH WIND       PRES   REMARKS
KALISPELL      FOG       34  34 100 CALM      30.22F VSB 3/4  
MISSOULA       CLEAR     37  36  96 CALM      30.27F 
BUTTE          PTCLDY    34  30  85 SE3       30.29S 
MULLAN PASS    CLEAR     41  36  82 SW8       30.25F 
* ESSEX        N/A       35  34  96 N/A        N/A   
* LINCOLN      N/A       47  37  68 SW3G10     N/A   
* LOOKOUT PASS N/A       39  39 100 SE1        N/A   
* POLSON       N/A       44  41  89 N/A        N/A   
* RONAN APT    CLEAR     37  36  96 N/A        N/A   
* SEELEY LAKE  N/A       33  32  96 NE1        N/A   
* THOMP F APT  CLEAR     41  29  62 N8         N/A   
--------------------------------

MTZ008-052.055-270900-
SOUTHWEST MONTANA
CITY           SKY/WX    TMP DP  RH WIND       PRES   REMARKS
BOZEMAN        PTCLDY    39  34  82 S8        30.24S WCI  33 
DILLON         PTCLDY    45  34  65 S13       30.27F 
* W YELLOWSTON CLEAR     28  26  92 N/A        N/A   
* THREE FORKS  PTCLDY    48  36  63 N/A        N/A   
* TWIN BRIDGES PTCLDY    45  32  60 E6         N/A   
* BOULDER HILL N/A       45  28  51 S4         N/A   
* HOMESTAKE PS N/A       41  31  68 W8         N/A   
* MONIDA PASS  N/A       35  31  85 SE3        N/A   
* RAYNOLDS PAS N/A       32  20  61 SW8        N/A   WCI  25 
* WHITEHALL    N/A       50  34  54 NW6        N/A   
* WISE RIVER   N/A       36  31  82 W5         N/A   WCI  32 
--------------------------------

MTZ009.010-012-014-046-048-049-054-270900-
EAST SLOPES AND CENTRAL MONTANA
CITY           SKY/WX    TMP DP  RH WIND       PRES   REMARKS
CUT BANK       CLOUDY    52  36  55 W25G32    30.05F 
GREAT FALLS    PTCLDY    46  36  68 SW10      30.10F 
HELENA         PTCLDY    48  36  63 W8        30.19F 
MALMSTROM AFB  PTCLDY    48  36  63 SW15      30.11S 
* DEARBORN     N/A       49  36  61 SW4        N/A   
* EAST GLACIER N/A       48  35  61 W37G49     N/A   
* MONARCH      N/A       45  28  51 S12        N/A   
* PENDROY      N/A       52  31  45 NW12G22    N/A   
* ROGERS PASS  N/A       44  35  71 SE9G19     N/A   
--------------------------------

MTZ011-013-016-021-035-040-045-047-050-051-270900-
NORTH CENTRAL MONTANA
CITY           SKY/WX    TMP DP  RH WIND       PRES   REMARKS
HAVRE          CLOUDY    46  39  77 SW12      30.02S 
LEWISTOWN      PTCLDY    46  36  68 SW7       30.10F 
* N BAR RANCH  CLEAR     48  34  59 W13       30.09F 
* MALTA APT    CLOUDY    39  30  70 N/A        N/A   
* CHESTER      N/A       50  37  61 NW10G15    N/A   
* DENTON       N/A       49  33  54 SW12G17    N/A   
* GEYSER       N/A       50  30  46 W17G26     N/A   
* JUDITH GAP   N/A       42  34  73 W12        N/A   
* LOMA         N/A       49  37  63 W6         N/A   
--------------------------------

MTZ017.020-022.027-061-062-270900-
NORTHEAST MONTANA
CITY           SKY/WX    TMP DP  RH WIND       PRES   REMARKS
GLASGOW        CLOUDY    37  32  82 E8        29.97F WCI  31 
GLENDIVE       CLOUDY    39  32  76 S5        30.04F WCI  35 
JORDAN         MOCLDY    43  36  76 W9        29.99F 
SIDNEY         CLOUDY    37  30  76 SE7       30.04F WCI  32 
WOLF POINT     CLOUDY    37  32  82 NE5       29.99F WCI  33 
* BEAVER HILL  N/A       38  34  86 SE14       N/A   WCI  30 
* CIRCLE       N/A       43  34  71 S3         N/A   
* LINDSAY DVD  N/A       38  33  82 SE4        N/A   
* NAVAJO       N/A       35  32  89 S10        N/A   WCI  27 
* SACO         N/A       37  31  79 NE2        N/A   
--------------------------------

MTZ028.042-056.058-270900-
SOUTHCENTRAL AND SOUTHEAST MONTANA
CITYSKY/WX    TMP DP  RH WIND       PRES   REMARKS
BAKER          CLOUDY    37  30  76 SE10      30.05F WCI  30 
BILLINGS       MOCLDY    52  34  50 NW13      30.10F 
LIVINGSTON     PTCLDY    52  34  50 W21G28    30.18F 
MILES CITY     MOCLDY    43  32  65 SE8       30.01F 
* LAUREL APT   MOCLDY    48  28  46 W6         N/A   
* ROUNDUP APT  CLOUDY    52  34  50 SW8        N/A   
* ALZADA       N/A       34  30  85 E5         N/A   WCI  29 
* HYSHAM       N/A       50  33  52 W4         N/A   
* LAME DEER    N/A       47  37  68 W11G16     N/A   
* REED POINT   N/A       55  33  43 W16        N/A   
* ROSCOE HILL  N/A       54  17  23 S2G16      N/A   
--------------------------------

REGIONAL REPORTS...DAKOTAS
CITY           SKY/WX    TMP DP  RH WIND       PRES   REMARKS
WILLISTON      CLOUDY    37  28  70 S6        30.07F WCI  32 
DICKINSON      CLOUDY    34  27  76 S14       30.07F WCI  24 
CROSBY         FAIR      34  28  79 S15       30.06F WCI  24 
WATFORD CITY   PTCLDY    36  28  73 S12       30.06F WCI  28 
BISMARCK       MOCLDY    25  16  69 S9        30.22F WCI  16 
GRAND FORKS    CLEAR     14  10  84 CALM      30.29F 
FARGO          CLEAR     12   7  80 CALM      30.29F 
BUFFALO SD     CLOUDY    34  30  85 S8        30.03F WCI  27 
RAPID CITY     CLOUDY    34  27  76 SE9       30.13F WCI  27 
--------------------------------

REGIONAL REPORTS...WYOMING/IDAHO/WASHINGTON
CITY           SKY/WX    TMP DP  RH WIND       PRES   REMARKS
GILLETTE       CLOUDY    43  39  86 S7        30.09F 
SHERIDAN       CLOUDY    45  37  74 CALM      30.10F 
CODY           PTCLDY    54  28  37 W16G26    30.14S 
YELLOWSTONE LA PTCLDY    27  25  92 CALM      30.36F 
SALMON         CLEAR     36  30  79 CALM      30.31S 
MULLAN PASS    CLEAR     41  36  82 SW8       30.25S 
SAND POINT     FOG       39  39 100 CALM      30.21F VSB 1/2  
SPOKANE        FAIR      46  45  96 NE6       30.18F 

--------------------------------